Regional Weather Roundup
Issued by NWS

Home | Current Version | Previous Version | Text Only | Print | Product List | Glossary Off
Versions: 1 2 3 4 5 6 7 8 9 10 11 12 13 14 15 16 17 18 19 20 21 22 23 24 25 26 27 28 29 30 31 32 33 34 35 36 37 38 39 40 41 42 43 44 45 46 47 48 49 50

710
ASUS45 KSLC 190610
RWRUT

UTAH REGIONAL WEATHER ROUNDUP
NATIONAL WEATHER SERVICE SALT LAKE CITY UT
1100 PM MST SAT FEB 18 2017

UTZ001>011-023>025-190700-

NORTHERN UTAH

CITY           SKY/WX    TMP DP  RH WIND       PRES   REMARKS
BRIGHAM CITY     N/A     43  38  83 CALM      29.61F
HILL AFB       CLOUDY    45  36  70 S12       29.61F
LOGAN          LGT RAIN  41  38  89 CALM      29.61S
OGDEN          CLOUDY    43  40  89 SE3       29.60F
SALT LAKE CITY CLOUDY    49  35  58 S13       29.61R
TOOELE VALLEY  CLOUDY    48  37  66 S20G26    29.60S
WENDOVER       CLOUDY    43  37  81 CALM      29.58R
HEBER CITY     CLOUDY    43  30  61 CALM      29.66S
WEST JORDAN    CLOUDY    49  43  79 S13       29.63S

$$

UTZ011>015-024>027-190700-

CENTRAL/NORTHEAST UTAH

CITY           SKY/WX    TMP DP  RH WIND       PRES   REMARKS
PROVO AIRPORT  CLOUDY    48  34  58 SE15      29.64F
MOAB/CANYONLAN MOCLDY    42  40  92 W10       29.71R
DELTA          CLOUDY    41  37  87 SE6       29.64S
PRICE          MOCLDY    36  35  96 N7        29.72F WCI  30
RICHFIELD      PTCLDY    41  36  81 N2        29.68S
ROOSEVELT      CLOUDY    39  36  87 CALM      29.76F
VERNAL         CLOUDY    34  34 100 S5        29.74F WCI  30

$$

UTZ013>016-019>022-027-190700-

SOUTHERN UTAH

CITY           SKY/WX    TMP DP  RH WIND       PRES   REMARKS
BRYCE CANYON   LGT SNOW  34  32  92 SE5       29.74S FOG     WCI  30
CEDAR CITY     CLOUDY    41  35  79 S3        29.67R
MILFORD        MOCLDY    41  37  86 SW9       29.65R
ST GEORGE      LGT RAIN  48  46  93 SE3       29.66R
HANKSVILLE     CLOUDY    41  37  87 NW5       29.75R
KANAB          MOCLDY    43  41  93 N5        29.73S
BLANDING       CLOUDY    45  35  67 E8        29.81R

$$

REGIONAL REPORTS     COLORADO/ARIZONA

CITY           SKY/WX    TMP DP  RH WIND       PRES   REMARKS
CRAIG, CO      CLEAR     28  25  88 CALM      29.77S
GRAND JUNCTION CLOUDY    38  37  97 E8        29.72F WCI  32
RIFLE, CO      CLOUDY    35  31  85 CALM      29.74F
MONTROSE, CO   CLOUDY    33  30  88 S7        29.77S WCI  27
CORTEZ, CO     CLOUDY    49  30  48 SE13      29.76R
COLORADO CITY    N/A     46  39  76 E9        29.70S
PAGE, AZ       MOCLDY    44  38  79 CALM      29.68S
GRAND CANYON   MOCLDY    34  34 100 CALM      29.72S
KINGMAN, AZ    CLOUDY    47  43  86 N5        29.66S
FLAGSTAFF, AZ  LGT SNOW  32  32 100 S8        29.73S FOG     WCI  25

$$

REGIONAL REPORTS    NEVADA/IDAHO/WYOMING

CITY           SKY/WX    TMP DP  RH WIND       PRES   REMARKS
LAS VEGAS, NV  MOCLDY    51  48  89 E3        29.64R
ELY, NY        LGT RAIN  36  33  89 S16       29.62R WCI  26
ELKO, NV       CLOUDY    40  36  86 W8        29.56R WCI  34
POCATELLO, ID  CLOUDY    47  36  65 S18       29.53F
BURLEY, ID     CLOUDY    46  37  71 SW16      29.51S
FORT BRIDGER,  MOCLDY    32  32 100 CALM      29.70S
EVANSTON, WY   CLOUDY    35  27  72 SE6       29.67S WCI  30
ROCK SPRINGS,  CLOUDY    38  29  70 S17       29.68F WCI  28
KEMMERER, WY     N/A     32  30  93 N6        29.69S WCI  26

$$




USA.gov is the U.S. government's official web portal to all federal, state and local government web resources and services.